Shelton, WA
on Thursday, January 17, 2013

Thursday
Previous Day Next Day
Daily Summary
 ActualAverage (KOLM)Record (KOLM)
Temperature
Mean Temperature °F 40°F  
Max Temperature 34°F 46°F 58°F (1977)
Min Temperature 21°F 34°F 8°F (1950)
Degree Days
Heating Degree Days 38 25  
Month to date heating degree days 435  
Since 1 July heating degree days 2705  
Cooling Degree Days 0 0  
Month to date cooling degree days 0  
Year to date cooling degree days 0  
Moisture
Dew Point 30°F   
Average Humidity 98    
Maximum Humidity 100    
Minimum Humidity 86    
Precipitation
Precipitation 0.00 in 0.27 in 2.21 in (2005)
Month to date precipitation 4.43  
Year to date precipitation 4.43  
Wind
Wind Speed 1 mph   
Max Wind Speed 6 mph   
Max Gust Speed mph   
Visibility 3 miles   
Events Fog   

Key: T is trace of precipitation, MM is missing value
Source: NWS Daily Summary
Time(PST)TemperatureDew PointHumidity Pressure Visibility Wind DirectionWind SpeedGust SpeedPrecipitationEvents Conditions
12:04 AM 26.6°F 24.8°F 93% 30.49 in 2.0 miles Calm Calm - N/A   Clear
12:15 AM 26.6°F 24.8°F 93% 30.50 in 8.0 miles Calm Calm - N/A   Clear
12:22 AM 26.6°F 24.8°F 93% 30.50 in 10.0 miles Calm Calm - N/A   Scattered Clouds
12:34 AM 24.8°F 24.8°F 100% 30.49 in 10.0 miles Calm Calm - N/A   Mostly Cloudy
12:44 AM 26.6°F 24.8°F 93% 30.49 in 8.0 miles Calm Calm - N/A   Scattered Clouds
12:53 AM 23.0°F 21.9°F 96% 30.52 in 1.8 miles Calm Calm - N/A   Scattered Clouds
1:08 AM 24.8°F 23.0°F 93% 30.49 in 1.5 miles Calm Calm - N/A   Mostly Cloudy
1:41 AM 24.8°F 23.0°F 93% 30.50 in 3.0 miles Calm Calm - N/A   Mostly Cloudy
1:53 AM 23.0°F 21.9°F 96% 30.52 in 2.5 miles Calm Calm - N/A   Mostly Cloudy
2:00 AM 23.0°F 21.2°F 93% 30.49 in 2.0 miles Calm Calm - N/A   Scattered Clouds
2:08 AM 21.2°F 21.2°F 100% 30.50 in 2.0 miles Calm Calm - N/A   Mostly Cloudy
2:15 AM 24.8°F 21.2°F 86% 30.50 in 1.8 miles Calm Calm - N/A   Scattered Clouds
2:21 AM 24.8°F 23.0°F 93% 30.50 in 3.0 miles Calm Calm - N/A   Scattered Clouds
2:46 AM 24.8°F 23.0°F 93% 30.49 in 10.0 miles Calm Calm - N/A   Mostly Cloudy
2:53 AM 25.0°F 24.1°F 96% 30.51 in 10.0 miles Calm Calm - N/A   Mostly Cloudy
3:13 AM 26.6°F 26.6°F 100% 30.48 in 10.0 miles Calm Calm - N/A   Overcast
3:29 AM 28.4°F 26.6°F 93% 30.48 in 10.0 miles Calm Calm - N/A   Overcast
3:53 AM 30.2°F 28.4°F 93% 30.48 in 9.0 miles Calm Calm - N/A   Overcast
4:08 AM 30.2°F 30.2°F 100% 30.46 in 1.8 miles Calm Calm - N/A   Overcast
4:53 AM 32.0°F 30.9°F 96% 30.47 in 1.5 miles NE 4.6 mph - N/A   Overcast
5:53 AM 32.0°F 32.0°F 100% 30.45 in 1.2 miles NNE 3.5 mph - N/A   Overcast
6:53 AM 32.0°F 30.9°F 96% 30.45 in 1.8 miles NE 4.6 mph - N/A   Overcast
7:09 AM 30.2°F 30.2°F 100% 30.43 in 2.0 miles NNE 3.5 mph - N/A   Overcast
7:16 AM 30.2°F 30.2°F 100% 30.43 in 1.8 miles North 4.6 mph - N/A   Overcast
7:53 AM 30.9°F 30.9°F 100% 30.45 in 1.8 miles North 3.5 mph - N/A   Overcast
8:23 AM 30.2°F 30.2°F 100% 30.43 in 2.5 miles NNE 5.8 mph - N/A   Overcast
8:35 AM 30.2°F 30.2°F 100% 30.43 in 1.8 miles North 4.6 mph - N/A   Overcast
8:53 AM 30.9°F 30.9°F 100% 30.46 in 1.0 miles NNE 3.5 mph - N/A   Mist
9:28 AM 32.0°F 30.2°F 93% 30.44 in 0.8 miles NNE 3.5 mph - N/A   Mist
9:53 AM 32.0°F 32.0°F 100% 30.46 in 0.8 miles North 4.6 mph - N/A   Mist
10:53 AM 33.1°F 33.1°F 100% 30.45 in 0.5 miles NNE 4.6 mph - N/A Fog Fog
11:53 AM 34.0°F 34.0°F 100% 30.43 in 0.5 miles NNE 3.5 mph - N/A Fog Fog
12:53 PM 34.0°F 34.0°F 100% 30.40 in 0.8 miles Calm Calm - N/A   Mist
1:41 PM 33.8°F 33.8°F 100% 30.35 in 2.0 miles East 3.5 mph - N/A   Overcast
1:53 PM 34.0°F 34.0°F 100% 30.37 in 1.0 miles Calm Calm - N/A   Mist
2:53 PM 34.0°F 34.0°F 100% 30.35 in 1.0 miles NE 4.6 mph - N/A   Mist
3:29 PM 33.8°F 33.8°F 100% 30.32 in 0.8 miles ESE 4.6 mph - N/A   Mist
3:53 PM 34.0°F 34.0°F 100% 30.33 in 1.0 miles Calm Calm - N/A   Mist
4:09 PM 33.8°F 33.8°F 100% 30.31 in 0.8 miles ENE 3.5 mph - N/A   Mist
4:23 PM 33.8°F 33.8°F 100% 30.31 in 1.0 miles Calm Calm - N/A   Mist
4:39 PM 33.8°F 33.8°F 100% 30.32 in 0.8 miles NNE 4.6 mph - N/A   Mist
4:53 PM 33.1°F 33.1°F 100% 30.34 in 0.8 miles NNE 3.5 mph - N/A   Mist
5:27 PM 33.8°F 33.8°F 100% 30.32 in 1.0 miles NNE 4.6 mph - N/A   Mist
5:53 PM 33.1°F 33.1°F 100% 30.34 in 1.0 miles NNE 4.6 mph - N/A   Mist
6:53 PM 33.1°F 33.1°F 100% 30.32 in 1.0 miles Calm Calm - N/A   Mist
7:53 PM 33.1°F 33.1°F 100% 30.32 in 1.0 miles Calm Calm - N/A   Mist
8:12 PM 33.8°F 33.8°F 100% 30.30 in 0.8 miles Calm Calm - N/A   Mist
8:53 PM 33.1°F 33.1°F 100% 30.32 in 1.0 miles Calm Calm - N/A   Mist
9:02 PM 33.8°F 33.8°F 100% 30.29 in 0.8 miles Calm Calm - N/A   Mist
9:13 PM 33.8°F 33.8°F 100% 30.30 in 1.0 miles Calm Calm - N/A   Mist
9:25 PM 32.0°F 32.0°F 100% 30.30 in 0.8 miles Calm Calm - N/A   Mist
9:53 PM 33.1°F 33.1°F 100% 30.31 in 0.8 miles Calm Calm - N/A   Mist
10:15 PM 32.0°F 32.0°F 100% 30.29 in 1.0 miles Calm Calm - N/A   Mist
10:53 PM 32.0°F 32.0°F 100% 30.30 in 0.8 miles Calm Calm - N/A   Mist
11:50 PM - - N/A% 30.27 in 1.0 miles Calm Calm - N/A   Mist
11:53 PM - - N/A% 30.27 in 1.0 miles Calm Calm - N/A   Mist
Moon Phase
Jan. 17 Jan. 18 Jan. 26 Feb. 03 Feb. 10
Sunrise:07:53 AM (PST) Moon Rise:10:32 AM (PST)1/17
Sunset:04:52 PM (PST) Moon Set:No Moon Set/

Copyright © 2014 The Weather Underground, Inc.